7 * 24
多渠道服务支持
STARLINK-36886(NORAD编号68175)是美国SpaceX公司星链(Starlink)星座中的一颗低轨通信卫星,属于第三代星链卫星(v1.5/Block V批次)。它运行在约540公里的近地轨道,轨道倾角约53度,公转周期约95.4分钟。该卫星旨在为全球范围内用户,尤其是偏远地区提供高速宽带互联网接入服务,搭载了改进型推进系统与通信设备,可提升星链网络的覆盖范围与连接稳定性,目前处于正常在轨运行状态,是星链巨型低轨卫星互联网星座的组成部分。
美国
(US)
| 数据来源 | 国际轨道数据 |
| 星历时间: | 2026-05-24T09:26:56+0800 1天前 查看轨道信息 |
| 半长轴: | 6840.841km |
| 偏心率: | 0.0001104 |
| 轨道倾角: | 53.158° |
| 近地点辐角 | 78.122° |
| 升交点赤经 | 275.884° |
| 平近点角 | 281.991° |
| 近地点: | 461.948km |
| 远地点: | 463.46km |
| 周期: | 93.848分钟 |
| 每日圈数: | 15.343999 |